This is the latest recevied weather packets stored in our database for station/object OE6JUE. If no packets are shown the sender has not sent any weather packets the latest 10 day(s).
| Time | Temp. | Humidity | Pressure | Rain* | Wind** | Luminosity | Snow |
|---|---|---|---|---|---|---|---|
| 1777956432 | 11.67° C | 78% | 1012.6 hPa | 0 mm | - | - | - |
| 1777956132 | 10.56° C | 79% | 1012.4 hPa | 0 mm | - | - | - |
| 1777955833 | 8.89° C | 79% | 1012.5 hPa | 0 mm | - | - | - |
| 1777955532 | 8.33° C | 77% | 1012.5 hPa | 0 mm | - | - | - |
| 1777955232 | 7.78° C | 77% | 1012.7 hPa | 0 mm | - | - | - |
| 1777954932 | 8.33° C | 77% | 1012.6 hPa | 0 mm | - | - | - |
| 1777954632 | 8.33° C | 77% | 1012.6 hPa | 0 mm | - | - | - |
| 1777954332 | 8.33° C | 77% | 1012.6 hPa | 0 mm | - | - | - |
| 1777954031 | 8.33° C | 77% | 1012.5 hPa | 0 mm | - | - | - |
| 1777953731 | 8.33° C | 77% | 1012.4 hPa | - | - | - | - |
| 1777953431 | 8.33° C | 77% | 1012.2 hPa | 0 mm | - | - | - |
| 1777953132 | 8.33° C | 77% | 1012.3 hPa | 0 mm | - | - | - |
| 1777952831 | 8.33° C | 77% | 1012.3 hPa | 0 mm | - | - | - |
| 1777952531 | 7.78° C | 76% | 1012.5 hPa | 0 mm | - | - | - |
| 1777952231 | 8.33° C | 76% | 1012.5 hPa | 0 mm | - | - | - |
| 1777951932 | 8.33° C | 75% | 1012.6 hPa | 0 mm | - | - | - |
| 1777951632 | 8.33° C | 75% | 1012.5 hPa | 0 mm | - | - | - |
| 1777951331 | 8.33° C | 75% | 1012.6 hPa | 0 mm | - | - | - |
| 1777951031 | 8.89° C | 75% | 1012.6 hPa | 0 mm | - | - | - |
| 1777950732 | 8.89° C | 75% | 1012.7 hPa | 0 mm | - | - | - |
| 1777950431 | 8.89° C | 74% | 1012.8 hPa | 0 mm | - | - | - |
| 1777950132 | 8.89° C | 74% | 1012.9 hPa | - | - | - | - |
| 1777949832 | 9.44° C | 75% | 1012.9 hPa | 0 mm | - | - | - |
| 1777949457 | 9.44° C | 74% | 1012.9 hPa | 0 mm | - | - | - |
| 1777949158 | 9.44° C | 74% | 1012.9 hPa | 0 mm | - | - | - |
* Rain latest hour (hover to see other rain measurements)
** Current wind speed in m/s (hover to see current wind gust speed)